sat.trackr.live / text

‹ back to catalog

YAOGAN-31 03C

NORAD 47695 · 2021-014E

PAYLOAD ACTIVE UNKNOWN

§ Identity

Operator
Country
PRC
Launch date
2021-02-24
Launch site
JSC
Launch vehicle
Mass (kg)
RCS (m²)

External: N2YO · Heavens-Above · Gunter

§ Orbital elements

Epoch: 2026-05-25T04:47:11.501088Z

Period
107.03 min
Inclination
63.4029°
Eccentricity
0.0175156
Mean motion
13.45447786 rev/d
Perigee alt
958.3 km
Apogee alt
1,219.8 km
Semi-major
7,467.2 km
B*
6.9598e-5
RAAN
256.7778°
Arg perigee
0.8770°
Mean anomaly
359.2531°
Rev number
25,763

§ Raw data

YAOGAN-31 03C1 47695U 21014E   26145.19943867 -.00000045  00000+0  69598-4 0  99942 47695  63.4029 256.7778 0175156   0.8770 359.2531 13.45447786257636

JSON: /api/v1/satellites/47695 · /tle

For live sub-satellite position, see the globe view (requires WebGL).

§ Visibility from observer

Set your observer location to see the next 7 days of passes ≥ 10°. The values pass through the URL so the page stays shareable.

No JS? Fill the form by hand. The geolocation button needs JavaScript.